This is the latest recevied weather packets stored in our database for station/object PU5FJO-13. If no packets are shown the sender has not sent any weather packets the latest 10 day(s).
| Time | Temp. | Humidity | Pressure | Rain* | Wind** | Luminosity | Snow |
|---|---|---|---|---|---|---|---|
| 1777337166 | 18.89° C | 73% | 1018.5 hPa | - | - | - | - |
| 1777336566 | 18.89° C | 71% | 1018.4 hPa | - | - | - | - |
| 1777335966 | 18.89° C | 69% | 1018.4 hPa | - | - | - | - |
| 1777335366 | 19.44° C | 65% | 1018.4 hPa | - | - | - | - |
| 1777334766 | 19.44° C | 63% | 1018.4 hPa | - | - | - | - |
| 1777334165 | 20° C | 61% | 1018.2 hPa | - | - | - | - |
| 1777333566 | 20° C | 58% | 1018.2 hPa | - | - | - | - |
| 1777332966 | 20.56° C | 56% | 1018 hPa | - | - | - | - |
| 1777332365 | 20° C | 57% | 1017.9 hPa | - | - | - | - |
| 1777331766 | 20° C | 54% | 1017.7 hPa | - | - | - | - |
| 1777331166 | 20° C | 54% | 1017.6 hPa | - | - | - | - |
| 1777330565 | 20° C | 55% | 1017.4 hPa | - | - | - | - |
| 1777329966 | 20° C | 57% | 1017.1 hPa | - | - | - | - |
| 1777329365 | 20.56° C | 56% | 1017 hPa | - | - | - | - |
| 1777328765 | 20° C | 55% | 1016.8 hPa | - | - | - | - |
| 1777328165 | 20° C | 58% | 1016.7 hPa | - | - | - | - |
| 1777327565 | 20° C | 59% | 1016.5 hPa | - | - | - | - |
| 1777326965 | 20° C | 59% | 1016.5 hPa | - | - | - | - |
| 1777326365 | 20° C | 57% | 1016.3 hPa | - | - | - | - |
| 1777325765 | 20.56° C | 57% | 1016.3 hPa | - | - | - | - |
| 1777325165 | 20.56° C | 57% | 1016.2 hPa | - | - | - | - |
| 1777324565 | 20.56° C | 57% | 1016 hPa | - | - | - | - |
| 1777323965 | 20.56° C | 58% | 1015.9 hPa | - | - | - | - |
| 1777323365 | 21.11° C | 57% | 1015.6 hPa | - | - | - | - |
| 1777322765 | 21.11° C | 57% | 1015.4 hPa | - | - | - | - |
* Rain since midnight (hover to see other rain measurements)
** Current wind speed in m/s (hover to see current wind gust speed)